CAPE
0 0 0 0 0 0 0 0 0 8 137 335 454 489 1843 2127 2354 1680 1846 1741 1542 1352 1668 1833 1575 1717 1685 1721 1803 1883 2006 2079 2099 2007 1895 1931 2029 2052 2018 1799 1674 1550 1390 1207 1308 1495 1213 960 803
0 0 0 0 0 0 0 0 0 11 50 201 644 526 696 2156 2303 2223 2026 1997 1856 1717 1576 1796 1634 1748 1797 1768 1795 1853 1996 2003 1944 1879 1882 1946 2004 1977 1882 1825 1712 1653 1812 1767 1659 1431 1129 826 797
0 0 0 0 0 0 0 0 0 10 17 59 702 853 2073 2100 1939 2081 2102 2093 1969 1697 1588 1758 1653 1711 1795 1812 1837 1879 1953 1824 1722 1628 1743 1884 1942 1818 1510 1443 1307 1331 1441 1351 1377 1070 815 692 590
0 0 0 0 0 0 0 0 0 0 0 32 58 2060 2222 2250 2479 2190 2158 2230 2125 1901 1523 1623 1591 1623 1777 1889 1886 1904 1823 1605 1356 1270 1556 1903 1950 1523 1276 1225 1295 1406 1349 1264 1296 1119 862 701 634
0 0 0 0 0 0 0 0 0 0 0 0 6 1726 2242 2208 2379 2108 2041 2116 2102 1613 1388 1467 1514 1572 1777 1951 1888 1720 1513 1355 1334 1397 1486 1657 1537 1093 701 591 496 548 678 733 671 500 364 307 241
0 0 0 0 0 0 0 0 0 0 0 0 0 1570 2335 2274 2155 2097 2024 2033 1951 1653 1317 1304 1398 1451 1607 1688 1542 1325 1022 969 924 975 960 826 604 445 307 260 232 224 213 178 153 107 77 54 34
0 0 0 0 0 0 0 0 0 0 0 0 0 1143 2117 2156 2086 1898 2065 2036 1936 1745 1618 1223 1233 1201 1213 1155 1022 834 720 677 685 682 609 453 325 139 15 5 0 0 1 1 0 0 0 0 0
0 0 0 0 0 0 0 0 0 0 0 0 0 1466 2188 2104 2051 1896 1844 1887 1929 1752 1783 1526 1126 1073 1104 1119 837 813 841 470 561 600 543 101 0 0 0 0 0 0 0 0 0 0 0 0 0
0 0 0 0 0 0 0 0 0 0 0 0 1 2675 2469 2263 2034 1749 1675 1590 1508 1475 1474 1518 937 1112 1450 951 947 870 505 367 189 80 3 0 0 0 0 0 0 0 0 0 0 0 0 0 0
0 0 0 0 0 0 0 0 0 0 0 0 1462 2581 2576 2179 1847 1491 1401 1329 1679 1648 1484 1167 1161 1341 859 636 337 191 105 31 5 0 0 0 0 0 0 0 0 0 0 0 0 0 0 0 0
0 0 0 0 0 0 0 0 0 0 0 0 652 2314 2409 1891 1387 1441 1351 1173 1138 1571 1744 1803 1237 1284 937 682 236 99 17 1 0 0 0 0 0 0 0 0 0 0 0 0 0 0 0 0 0
0 0 0 0 0 0 0 0 0 0 0 0 1776 2208 2037 1766 1286 1257 1310 1199 1031 1258 1750 1827 1644 1141 939 669 217 45 13 0 0 0 0 0 0 0 0 0 0 0 0 0 0 0 0 0 0
0 0 0 0 0 0 0 0 0 0 0 0 0 1916 1645 1536 1301 1246 1344 1149 1046 992 1439 1615 1413 1071 802 672 250 10 0 0 0 0 0 0 0 0 0 0 0 0 0 0 0 0 0 0 0
0 0 0 0 0 0 0 0 0 0 0 0 0 0 959 1472 1491 1443 1245 1145 1035 1032 1217 1383 1078 1039 865 642 337 121 3 0 0 0 0 0 0 0 0 0 0 0 0 0 0 0 0 0 0
0 0 0 0 0 0 0 0 0 0 0 0 0 0 0 61 1429 1533 1547 1388 1231 1195 1251 1156 1055 880 802 801 398 253 101 0 0 0 0 0 0 0 0 0 0 0 0 0 0 0 0 0 0
0 0 0 0 0 0 0 0 0 0 0 0 0 0 0 0 0 427 1425 1413 1472 1268 1316 1149 1116 952 629 523 418 339 163 0 0 0 0 0 0 0 0 0 0 0 0 0 0 0 0 0 0
0 0 0 0 0 0 0 0 0 0 0 0 0 0 0 0 0 0 404 1324 1457 1515 1393 1306 1026 1064 1003 784 207 255 88 0 0 0 0 0 0 0 0 0 0 0 0 0 0 0 0 0 0
0 0 0 0 0 0 0 0 0 0 0 0 0 0 0 0 0 0 0 0 1285 1450 1471 1638 1513 1315 1307 1129 474 24 17 0 0 0 0 0 0 0 0 0 0 0 0 0 0 0 0 0 0
0 0 0 0 0 0 0 0 0 0 0 0 0 0 0 0 0 0 0 0 143 1308 1299 1736 1695 1572 1442 1276 987 443 0 0 0 0 0 0 0 0 0 0 0 0 0 0 0 0 0 0 0
0 0 0 0 0 0 0 0 0 0 0 0 0 0 0 0 0 0 0 0 0 513 1380 1518 1693 1661 1502 1426 1215 880 476 0 0 0 0 0 0 0 0 0 0 0 0 0 0 0 0 0 0
0 0 0 0 0 0 0 0 0 0 0 0 0 0 0 0 0 0 0 0 0 866 1257 1455 1549 1681 1639 1466 1150 891 703 124 0 0 0 0 0 0 0 0 0 0 0 0 0 0 0 0 0
0 0 0 0 0 0 0 0 0 0 0 0 0 0 0 0 0 0 0 0 16 919 1084 1139 1507 1704 1535 1297 1125 1022 857 459 0 0 0 0 0 0 0 0 0 0 0 0 0 0 0 0 0
0 0 0 0 0 0 0 0 0 0 0 0 0 0 0 0 0 0 0 0 141 1261 1322 1224 1372 1431 1425 1044 898 714 494 400 142 11 8 0 0 0 0 0 0 0 0 0 0 0 0 0 0
0 0 0 0 0 0 0 0 0 0 0 0 0 0 0 0 0 0 0 0 134 1379 1727 1464 1315 1068 915 807 548 548 569 0 11 9 21 139 2 0 0 0 0 0 0 0 0 0 0 0 0
0 0 0 0 0 0 0 0 0 0 0 0 0 0 0 0 0 0 0 0 3 952 1060 1024 891 823 776 627 484 201 237 19 18 22 56 190 147 26 8 0 0 0 0 0 0 0 0 0 0
0 0 0 0 0 0 0 0 0 0 0 0 0 0 0 0 0 0 6 0 0 120 534 639 608 655 549 504 423 305 199 45 9 14 84 135 161 102 46 56 0 0 0 0 0 0 0 0 0
0 0 0 0 0 0 0 0 0 0 0 0 0 0 0 0 0 0 0 0 0 0 86 380 555 484 509 416 370 312 254 121 60 14 6 26 173 190 147 101 2 0 0 0 0 0 0 0 0
0 0 0 0 0 0 0 0 0 0 0 0 0 30 9 0 1 0 0 0 0 0 9 13 138 352 505 575 417 310 336 248 93 144 18 20 62 222 120 13 0 0 0 0 0 0 0 0 0
0 0 0 0 0 0 0 0 0 0 0 0 0 1 9 29 32 4 1 0 0 0 0 0 0 0 30 280 427 452 367 271 62 152 67 81 72 24 0 0 0 0 0 0 0 0 0 0 0
0 0 0 0 0 0 0 0 0 0 0 0 0 0 0 2 2 0 1 14 3 0 0 0 0 0 5 2 67 252 349 326 245 125 106 70 60 4 0 0 0 0 0 0 0 0 0 0 0
CIN
-0 -0 -0 -0 -0 -0 -0 -0 -0 -35 -71 -134 -120 -112 -172 -141 -113 -150 -165 -168 -178 -307 -334 -303 -360 -291 -258 -213 -167 -118 -76 -38 -23 -4 -2 -1 -0 -0 -0 -0 -1 -0 -0 -0 -0 -0 -0 -7 -25
-0 -0 -0 -0 -0 -0 -0 -0 -0 -92 -96 -103 -109 -113 -82 -138 -150 -195 -169 -168 -172 -170 -373 -302 -311 -244 -202 -181 -157 -114 -65 -34 -24 -13 -5 -0 -0 -0 -0 -0 -1 -1 -0 -0 -0 -0 -1 -18 -27
-0 -0 -0 -0 -0 -0 -0 -0 -3 -84 -92 -134 -84 -69 -74 -117 -226 -143 -173 -172 -145 -160 -311 -320 -294 -233 -184 -155 -132 -88 -46 -43 -40 -24 -13 -3 -0 -0 -0 -1 -2 -1 -0 -0 -0 -0 -19 -33 -61
-0 -0 -0 -0 -0 -0 -0 -0 -0 -0 -0 -158 -120 -81 -132 -98 -163 -150 -171 -180 -163 -179 -353 -310 -293 -242 -174 -127 -95 -55 -41 -63 -76 -64 -24 -1 -0 -0 -0 -1 -0 -0 -0 -0 -0 -0 -13 -32 -46
-0 -0 -0 -0 -0 -0 -0 -0 -0 -0 -0 -0 -79 -38 -116 -144 -100 -138 -115 -161 -217 -297 -379 -323 -279 -222 -148 -88 -64 -64 -73 -93 -77 -47 -33 -8 -1 -7 -39 -43 -54 -40 -13 -7 -19 -51 -96 -103 -118
-0 -0 -0 -0 -0 -0 -0 -0 -0 -0 -0 -0 -0 -60 -104 -100 -97 -160 -191 -172 -204 -298 -288 -344 -282 -223 -151 -110 -124 -130 -177 -163 -137 -92 -91 -80 -72 -81 -100 -107 -103 -104 -117 -132 -152 -177 -208 -224 -247
-0 -0 -0 -0 -0 -0 -0 -0 -0 -0 -0 -0 -26 -95 -117 -125 -176 -191 -142 -185 -192 -205 -181 -317 -303 -268 -228 -200 -201 -214 -199 -190 -162 -115 -121 -146 -134 -162 -40 -48 -0 -0 -65 -65 -0 -0 -0 -0 -0
-0 -0 -0 -0 -0 -0 -0 -0 -0 -0 -0 -0 -0 -59 -107 -148 -141 -193 -166 -146 -144 -150 -153 -177 -286 -273 -226 -195 -231 -217 -174 -252 -194 -141 -141 -241 -0 -0 -0 -0 -0 -0 -0 -0 -0 -0 -0 -0 -0
-0 -0 -0 -0 -0 -0 -0 -0 -0 -0 -0 -0 -2 -80 -127 -123 -118 -235 -187 -181 -194 -186 -196 -178 -311 -221 -153 -232 -206 -200 -267 -292 -317 -343 -273 -0 -0 -0 -0 -0 -0 -0 -0 -0 -0 -0 -0 -0 -0
-0 -0 -0 -0 -0 -0 -0 -0 -0 -0 -0 -0 -128 -125 -106 -141 -137 -246 -245 -231 -163 -161 -181 -228 -167 -173 -206 -136 -365 -381 -430 -474 -506 -0 -0 -0 -0 -0 -0 -0 -0 -0 -0 -0 -0 -0 -0 -0 -0
-0 -0 -0 -0 -0 -0 -0 -0 -0 -0 -0 -0 -122 -125 -127 -129 -238 -221 -228 -241 -228 -131 -99 -101 -153 -159 -143 -131 -329 -357 -458 -498 -0 -0 -0 -0 -0 -0 -0 -0 -0 -0 -0 -0 -0 -0 -0 -0 -0
-0 -0 -0 -0 -0 -0 -0 -0 -0 -0 -0 -0 -108 -181 -168 -243 -274 -264 -248 -251 -259 -189 -114 -89 -101 -165 -152 -127 -295 -394 -502 -0 -0 -0 -0 -0 -0 -0 -0 -0 -0 -0 -0 -0 -0 -0 -0 -0 -0
-0 -0 -0 -0 -0 -0 -0 -0 -0 -0 -0 -0 -0 -120 -162 -227 -265 -278 -275 -256 -258 -290 -173 -136 -138 -185 -174 -133 -108 -273 -0 -0 -0 -0 -0 -0 -0 -0 -0 -0 -0 -0 -0 -0 -0 -0 -0 -0 -0
-0 -0 -0 -0 -0 -0 -0 -0 -0 -0 -0 -0 -0 -0 -153 -140 -206 -203 -282 -299 -309 -253 -199 -157 -202 -211 -221 -246 -110 -81 -59 -0 -0 -0 -0 -0 -0 -0 -0 -0 -0 -0 -0 -0 -0 -0 -0 -0 -0
-0 -0 -0 -0 -0 -0 -0 -0 -0 -0 -0 -0 -0 -0 -0 -12 -121 -193 -197 -223 -246 -266 -259 -217 -246 -259 -238 -240 -122 -100 -76 -0 -0 -0 -0 -0 -0 -0 -0 -0 -0 -0 -0 -0 -0 -0 -0 -0 -0
-0 -0 -0 -0 -0 -0 -0 -0 -0 -0 -0 -0 -0 -0 -0 -0 -0 -163 -207 -178 -191 -234 -241 -238 -265 -279 -259 -244 -160 -111 -80 -0 -0 -0 -0 -0 -0 -0 -0 -0 -0 -0 -0 -0 -0 -0 -0 -0 -0
-0 -0 -0 -0 -0 -0 -0 -0 -0 -0 -0 -0 -0 -0 -0 -0 -0 -0 -222 -150 -149 -162 -217 -190 -179 -193 -167 -140 -202 -154 -130 -0 -0 -0 -0 -0 -0 -0 -0 -0 -0 -0 -0 -0 -0 -0 -0 -0 -0
-0 -0 -0 -0 -0 -0 -0 -0 -0 -0 -0 -0 -0 -0 -0 -0 -0 -0 -0 -0 -133 -133 -154 -135 -158 -176 -126 -73 -105 -268 -196 -0 -0 -0 -0 -0 -0 -0 -0 -0 -0 -0 -0 -0 -0 -0 -0 -0 -0
-0 -0 -0 -0 -0 -0 -0 -0 -0 -0 -0 -0 -0 -0 -0 -0 -0 -0 -0 -0 -37 -107 -109 -89 -69 -83 -123 -99 -76 -84 -0 -0 -0 -0 -0 -0 -0 -0 -0 -0 -0 -0 -0 -0 -0 -0 -0 -0 -0
-0 -0 -0 -0 -0 -0 -0 -0 -0 -0 -0 -0 -0 -0 -0 -0 -0 -0 -0 -0 -0 -210 -100 -102 -64 -56 -44 -36 -32 -38 -72 -0 -0 -0 -0 -0 -0 -0 -0 -0 -0 -0 -0 -0 -0 -0 -0 -0 -0
-0 -0 -0 -0 -0 -0 -0 -0 -0 -0 -0 -0 -0 -0 -0 -0 -0 -0 -0 -0 -0 -325 -199 -83 -79 -57 -35 -29 -29 -22 -2 -219 -0 -0 -0 -0 -0 -0 -0 -0 -0 -0 -0 -0 -0 -0 -0 -0 -0
-0 -0 -0 -0 -0 -0 -0 -0 -0 -0 -0 -0 -0 -0 -0 -0 -0 -0 -0 -0 -236 -276 -212 -146 -77 -51 -40 -32 -29 -8 -1 -12 -0 -0 -0 -0 -0 -0 -0 -0 -0 -0 -0 -0 -0 -0 -0 -0 -0
-0 -0 -0 -0 -0 -0 -0 -0 -0 -0 -0 -0 -0 -0 -0 -0 -0 -0 -0 -0 -113 -185 -178 -115 -79 -41 -27 -38 -24 -6 -4 -2 -88 -270 -198 -0 -0 -0 -0 -0 -0 -0 -0 -0 -0 -0 -0 -0 -0
-0 -0 -0 -0 -0 -0 -0 -0 -0 -0 -0 -0 -0 -0 -0 -0 -0 -0 -0 -0 -340 -109 -74 -60 -32 -35 -22 -10 -13 -1 -0 -0 -0 -104 -76 -13 -14 -0 -0 -0 -0 -0 -0 -0 -0 -0 -0 -0 -0
-0 -0 -0 -0 -0 -0 -0 -0 -0 -0 -0 -0 -0 -0 -0 -0 -0 -0 -0 -0 -50 -45 -54 -44 -28 -19 -12 -3 -2 -6 -2 -19 -13 -65 -39 -0 -3 -27 -21 -25 -0 -0 -0 -0 -0 -0 -0 -0 -0
-0 -0 -0 -0 -0 -0 -0 -0 -0 -0 -0 -0 -0 -0 -0 -0 -0 -11 -16 -1 -0 -106 -76 -45 -20 -1 -3 -0 -0 -0 -2 -19 -0 -4 -28 -5 -2 -3 -17 -12 -0 -0 -0 -0 -0 -0 -0 -0 -0
-0 -0 -0 -0 -0 -0 -0 -0 -0 -0 -0 -0 -0 -0 -0 -0 -0 -0 -0 -0 -0 -0 -95 -46 -21 -15 -0 -4 -0 -0 -0 -5 -19 -0 -7 -48 -4 -0 -0 -1 -1 -0 -0 -0 -0 -0 -0 -0 -0
-0 -0 -0 -0 -0 -0 -0 -0 -0 -0 -0 -0 -2 -10 -2 -0 -3 -0 -14 -0 -0 -0 -229 -144 -73 -26 -7 -0 -0 -0 -0 -0 -7 -2 -0 -22 -13 -0 -2 -18 -0 -0 -0 -0 -0 -0 -0 -0 -0
-0 -0 -0 -0 -0 -0 -0 -0 -0 -0 -0 -0 -0 -1 -13 -3 -6 -40 -23 -0 -0 -0 -0 -0 -0 -0 -143 -8 -2 -0 -0 -0 -24 -0 -1 -1 -2 -9 -11 -0 -0 -0 -0 -0 -0 -0 -0 -0 -0
-0 -0 -0 -0 -0 -0 -0 -0 -0 -0 -0 -0 -0 -0 -1 -1 -3 -0 -6 -0 -50 -0 -0 -0 -0 -0 -3 -8 -44 -16 -1 -0 -0 -1 -0 -2 -0 -5 -1 -0 -0 -0 -0 -0 -0 -0 -0 -0 -0
Wind_Speed
nan nan nan nan nan nan nan nan nan nan 14 23 33 42 38 33 30 34 38 49 38 37 33 33 34 33 32 33 34 35 36 35 35 32 29 28 26 25 23 20 19 18 18 18 18 20 19 21 22
nan nan nan nan nan nan nan nan nan nan nan 30 40 37 37 35 33 36 35 39 41 33 30 32 35 33 33 36 38 38 40 37 36 34 30 28 28 26 24 22 20 19 19 19 22 21 19 18 19
nan nan nan nan nan nan nan nan nan nan nan nan 36 26 34 34 28 28 39 40 42 34 31 34 38 36 37 38 39 38 39 38 35 31 29 28 29 29 28 24 21 21 21 18 20 21 20 19 18
nan nan nan nan nan nan nan nan nan nan nan nan nan 39 31 30 27 30 43 42 39 34 35 35 38 38 38 40 39 40 37 38 35 33 29 27 29 31 30 27 26 24 24 23 21 22 21 19 19
nan nan nan nan nan nan nan nan nan nan nan nan nan 35 32 32 37 34 36 32 37 38 38 37 38 37 36 39 38 41 36 37 34 34 33 34 32 32 33 31 29 28 27 25 24 22 23 21 20
nan nan nan nan nan nan nan nan nan nan nan nan nan 44 38 32 34 34 42 38 37 41 40 37 38 35 35 37 38 43 41 39 35 32 34 34 29 28 31 32 30 29 28 27 26 24 nan nan nan
nan nan nan nan nan nan nan nan nan nan nan nan nan 37 36 30 32 39 39 40 39 39 38 34 37 38 38 40 42 44 41 37 34 34 35 35 31 27 nan nan nan nan nan nan nan nan nan nan nan
nan nan nan nan nan nan nan nan nan nan nan nan nan 42 35 33 35 39 38 36 36 38 36 34 36 36 35 35 41 43 41 37 36 36 36 34 nan nan nan nan nan nan nan nan nan nan nan nan nan
nan nan nan nan nan nan nan nan nan nan nan nan nan 36 43 45 41 40 39 37 36 35 35 35 36 37 37 36 38 43 43 40 37 nan nan nan nan nan nan nan nan nan nan nan nan nan nan nan nan
nan nan nan nan nan nan nan nan nan nan nan nan 43 43 42 44 39 37 37 39 36 35 34 34 36 37 37 37 37 38 38 nan nan nan nan nan nan nan nan nan nan nan nan nan nan nan nan nan nan
nan nan nan nan nan nan nan nan nan nan nan nan 41 45 39 32 27 29 28 31 35 34 32 34 36 37 37 38 35 nan nan nan nan nan nan nan nan nan nan nan nan nan nan nan nan nan nan nan nan
nan nan nan nan nan nan nan nan nan nan nan nan 43 47 42 33 25 28 31 29 31 31 29 28 30 37 38 37 35 nan nan nan nan nan nan nan nan nan nan nan nan nan nan nan nan nan nan nan nan
nan nan nan nan nan nan nan nan nan nan nan nan nan 44 42 30 23 24 33 29 29 29 28 35 39 39 40 39 35 nan nan nan nan nan nan nan nan nan nan nan nan nan nan nan nan nan nan nan nan
nan nan nan nan nan nan nan nan nan nan nan nan nan nan 42 38 29 22 30 31 31 33 32 37 37 37 40 38 38 37 nan nan nan nan nan nan nan nan nan nan nan nan nan nan nan nan nan nan nan
nan nan nan nan nan nan nan nan nan nan nan nan nan nan nan nan 37 36 26 29 32 32 39 39 41 40 41 41 41 39 37 nan nan nan nan nan nan nan nan nan nan nan nan nan nan nan nan nan nan
nan nan nan nan nan nan nan nan nan nan nan nan nan nan nan nan nan 44 39 30 30 34 38 39 38 42 41 41 41 40 41 nan nan nan nan nan nan nan nan nan nan nan nan nan nan nan nan nan nan
nan nan nan nan nan nan nan nan nan nan nan nan nan nan nan nan nan nan 46 44 42 36 40 35 38 39 40 42 41 40 nan nan nan nan nan nan nan nan nan nan nan nan nan nan nan nan nan nan nan
nan nan nan nan nan nan nan nan nan nan nan nan nan nan nan nan nan nan nan nan 52 47 47 45 39 40 46 46 45 nan nan nan nan nan nan nan nan nan nan nan nan nan nan nan nan nan nan nan nan
nan nan nan nan nan nan nan nan nan nan nan nan nan nan nan nan nan nan nan nan 44 48 56 48 44 39 41 47 51 48 nan nan nan nan nan nan nan nan nan nan nan nan nan nan nan nan nan nan nan
nan nan nan nan nan nan nan nan nan nan nan nan nan nan nan nan nan nan nan nan nan 47 55 54 49 47 43 43 47 50 55 nan nan nan nan nan nan nan nan nan nan nan nan nan nan nan nan nan nan
nan nan nan nan nan nan nan nan nan nan nan nan nan nan nan nan nan nan nan nan nan 43 53 56 57 54 51 51 53 56 56 56 nan nan nan nan nan nan nan nan nan nan nan nan nan nan nan nan nan
nan nan nan nan nan nan nan nan nan nan nan nan nan nan nan nan nan nan nan nan nan 49 54 57 58 57 55 58 58 60 57 55 nan nan nan nan nan nan nan nan nan nan nan nan nan nan nan nan nan
nan nan nan nan nan nan nan nan nan nan nan nan nan nan nan nan nan nan nan nan 57 63 65 62 68 67 64 63 60 65 64 63 62 nan nan nan nan nan nan nan nan nan nan nan nan nan nan nan nan
nan nan nan nan nan nan nan nan nan nan nan nan nan nan nan nan nan nan nan nan 66 68 70 66 71 72 68 63 64 65 69 nan nan nan nan 59 nan nan nan nan nan nan nan nan nan nan nan nan nan
nan nan nan nan nan nan nan nan nan nan nan nan nan nan nan nan nan nan nan nan nan 73 70 69 71 72 71 65 63 54 66 nan nan nan nan 63 61 nan nan nan nan nan nan nan nan nan nan nan nan
nan nan nan nan nan nan nan nan nan nan nan nan nan nan nan nan nan nan nan nan nan 70 75 80 78 76 71 69 71 60 69 nan nan nan nan 63 63 65 nan nan nan nan nan nan nan nan nan nan nan
nan nan nan nan nan nan nan nan nan nan nan nan nan nan nan nan nan nan nan nan nan nan nan 77 84 82 76 75 78 76 82 80 nan nan nan nan 67 67 68 68 nan nan nan nan nan nan nan nan nan
nan nan nan nan nan nan nan nan nan nan nan nan nan nan nan nan nan nan nan nan nan nan nan nan 70 70 77 79 75 72 77 75 nan 70 nan nan nan 71 74 nan nan nan nan nan nan nan nan nan nan
nan nan nan nan nan nan nan nan nan nan nan nan nan nan nan nan nan nan nan nan nan nan nan nan nan nan nan 71 68 69 73 77 nan 67 nan nan nan nan nan nan nan nan nan nan nan nan nan nan nan
nan nan nan nan nan nan nan nan nan nan nan nan nan nan nan nan nan nan nan nan nan nan nan nan nan nan nan nan nan 75 72 76 80 75 75 nan nan nan nan nan nan nan nan nan nan nan nan nan nan
Wind_Direction
nan nan nan nan nan nan nan nan nan nan 239 241 252 252 271 269 250 252 256 258 282 284 270 280 290 300 304 307 305 305 305 305 301 299 296 295 294 294 293 295 298 296 298 294 284 278 269 261 255
nan nan nan nan nan nan nan nan nan nan nan 253 253 255 275 271 262 268 262 273 280 283 277 282 287 297 302 305 306 305 306 308 303 301 298 298 298 295 291 287 283 284 293 292 282 270 266 264 261
nan nan nan nan nan nan nan nan nan nan nan nan 256 273 269 281 287 275 278 279 281 284 282 284 290 297 301 305 304 306 305 309 305 303 304 306 303 300 295 290 285 279 283 290 286 275 264 258 258
nan nan nan nan nan nan nan nan nan nan nan nan nan 278 276 270 275 267 277 283 285 289 282 287 291 297 301 303 304 305 306 310 307 309 314 311 304 299 292 287 282 278 283 287 287 279 267 260 256
nan nan nan nan nan nan nan nan nan nan nan nan nan 283 266 264 269 260 267 275 280 278 282 285 290 294 299 302 305 303 305 305 305 296 301 302 301 296 291 287 285 284 284 285 287 279 271 262 258
nan nan nan nan nan nan nan nan nan nan nan nan nan 280 270 280 276 270 274 269 268 273 277 284 289 291 294 300 298 295 295 291 292 301 304 302 302 295 292 289 289 288 286 287 287 283 nan nan nan
nan nan nan nan nan nan nan nan nan nan nan nan nan 267 279 270 272 265 266 269 270 267 270 273 277 280 283 287 288 289 293 292 297 304 303 308 305 298 nan nan nan nan nan nan nan nan nan nan nan
nan nan nan nan nan nan nan nan nan nan nan nan nan 281 288 294 282 271 269 269 272 272 273 273 277 280 281 282 286 289 291 296 302 303 306 308 nan nan nan nan nan nan nan nan nan nan nan nan nan
nan nan nan nan nan nan nan nan nan nan nan nan nan 282 292 291 279 274 272 269 268 269 275 276 277 278 278 278 284 287 292 296 298 nan nan nan nan nan nan nan nan nan nan nan nan nan nan nan nan
nan nan nan nan nan nan nan nan nan nan nan nan 268 268 279 283 290 291 288 286 280 278 277 278 277 277 278 281 279 282 286 nan nan nan nan nan nan nan nan nan nan nan nan nan nan nan nan nan nan
nan nan nan nan nan nan nan nan nan nan nan nan 293 298 299 305 304 297 292 289 285 283 285 285 287 290 289 282 284 nan nan nan nan nan nan nan nan nan nan nan nan nan nan nan nan nan nan nan nan
nan nan nan nan nan nan nan nan nan nan nan nan 296 304 303 317 324 304 298 298 290 287 292 293 294 294 288 282 283 nan nan nan nan nan nan nan nan nan nan nan nan nan nan nan nan nan nan nan nan
nan nan nan nan nan nan nan nan nan nan nan nan nan 303 309 321 331 313 302 301 301 300 296 296 289 292 285 287 283 nan nan nan nan nan nan nan nan nan nan nan nan nan nan nan nan nan nan nan nan
nan nan nan nan nan nan nan nan nan nan nan nan nan nan 306 320 327 311 307 314 311 298 295 291 297 294 287 286 288 286 nan nan nan nan nan nan nan nan nan nan nan nan nan nan nan nan nan nan nan
nan nan nan nan nan nan nan nan nan nan nan nan nan nan nan nan 320 320 325 319 314 309 303 303 296 295 291 288 285 282 283 nan nan nan nan nan nan nan nan nan nan nan nan nan nan nan nan nan nan
nan nan nan nan nan nan nan nan nan nan nan nan nan nan nan nan nan 313 322 320 309 304 313 309 304 302 296 293 281 280 280 nan nan nan nan nan nan nan nan nan nan nan nan nan nan nan nan nan nan
nan nan nan nan nan nan nan nan nan nan nan nan nan nan nan nan nan nan 314 314 311 314 310 308 305 305 297 289 284 286 nan nan nan nan nan nan nan nan nan nan nan nan nan nan nan nan nan nan nan
nan nan nan nan nan nan nan nan nan nan nan nan nan nan nan nan nan nan nan nan 314 317 311 315 308 308 300 289 282 nan nan nan nan nan nan nan nan nan nan nan nan nan nan nan nan nan nan nan nan
nan nan nan nan nan nan nan nan nan nan nan nan nan nan nan nan nan nan nan nan 297 310 309 311 307 306 300 299 297 288 nan nan nan nan nan nan nan nan nan nan nan nan nan nan nan nan nan nan nan
nan nan nan nan nan nan nan nan nan nan nan nan nan nan nan nan nan nan nan nan nan 304 309 308 310 307 304 296 295 291 291 nan nan nan nan nan nan nan nan nan nan nan nan nan nan nan nan nan nan
nan nan nan nan nan nan nan nan nan nan nan nan nan nan nan nan nan nan nan nan nan 299 315 314 312 312 304 299 291 287 281 279 nan nan nan nan nan nan nan nan nan nan nan nan nan nan nan nan nan
nan nan nan nan nan nan nan nan nan nan nan nan nan nan nan nan nan nan nan nan nan 297 305 301 294 292 287 287 284 288 283 278 nan nan nan nan nan nan nan nan nan nan nan nan nan nan nan nan nan
nan nan nan nan nan nan nan nan nan nan nan nan nan nan nan nan nan nan nan nan 277 286 289 289 286 287 284 281 282 275 271 267 267 nan nan nan nan nan nan nan nan nan nan nan nan nan nan nan nan
nan nan nan nan nan nan nan nan nan nan nan nan nan nan nan nan nan nan nan nan 268 270 280 281 283 285 280 273 273 273 275 nan nan nan nan 264 nan nan nan nan nan nan nan nan nan nan nan nan nan
nan nan nan nan nan nan nan nan nan nan nan nan nan nan nan nan nan nan nan nan nan 261 264 273 273 274 274 266 276 263 267 nan nan nan nan 265 261 nan nan nan nan nan nan nan nan nan nan nan nan
nan nan nan nan nan nan nan nan nan nan nan nan nan nan nan nan nan nan nan nan nan 257 262 264 267 268 270 270 264 269 267 nan nan nan nan 260 259 259 nan nan nan nan nan nan nan nan nan nan nan
nan nan nan nan nan nan nan nan nan nan nan nan nan nan nan nan nan nan nan nan nan nan nan 258 262 265 260 257 262 262 269 277 nan nan nan nan 259 261 261 261 nan nan nan nan nan nan nan nan nan
nan nan nan nan nan nan nan nan nan nan nan nan nan nan nan nan nan nan nan nan nan nan nan nan 246 256 255 248 261 264 264 266 nan 270 nan nan nan 262 260 nan nan nan nan nan nan nan nan nan nan
nan nan nan nan nan nan nan nan nan nan nan nan nan nan nan nan nan nan nan nan nan nan nan nan nan nan nan 257 255 265 268 272 nan 271 nan nan nan nan nan nan nan nan nan nan nan nan nan nan nan
nan nan nan nan nan nan nan nan nan nan nan nan nan nan nan nan nan nan nan nan nan nan nan nan nan nan nan nan nan 269 261 265 266 270 270 nan nan nan nan nan nan nan nan nan nan nan nan nan nan